Location: Chandolas
(44.4033°N, 4.2533°E)
Time: 12:12:51
(UTC+00:00)

Cosmos 2369 - Pass Details

Date: 26 February 2020
Orbit: 841 x 855 km, 71.0° (Epoch: 05 April)

Event Time Altitude Azimuth Distance (km) Brightness Sun altitude
Rises 05:04:50 0° 342° (NNW) 3,421 6.7 -15.4°
Reaches altitude 10° 05:07:45 10° 355° (N) 2,479 6.1 -14.8°
Maximum altitude 05:12:24 25° 50° (NE) 1,639 5.8 -14.0°
Drops below altitude 10° 05:17:01 10° 105° (ESE) 2,461 7.4 -13.2°
Sets 05:19:53 0° 118° (ESE) 3,390 8.0 -12.7°
